User: anonymous   Login
Location: Unspecified
(0.0000°N, 0.0000°E)
Time: 15:21:04
(UTC+00:00)
Language:

SJ-6F - Orbit

View from above orbital plane
View from above orbital plane
View from above satellite
View from above satellite

Ground track
Ground track

The orbit data is extracted from the following two-line orbital elements,

1 33409U 08053B   19167.18726952  .00000033  00000-0  82838-5 0  9999
2 33409  97.7071 145.3046 0014838 297.0051  62.9635 14.94893615579904
Epoch (UTC): 16 June 2019 04:29:40
Eccentricity: 0.0014838
inclination: 97.7071°
perigee height: 572 km
apogee height: 593 km
right ascension of ascending node: 145.3046°
argument of perigee: 297.0051°
revolutions per day: 14.94893615
mean anomaly at epoch: 62.9635°
orbit number at epoch: 57990

The dashed part of the orbit path shows where the satellite is in the earth's shadow,  

DLR